{"data":{"norad_id":64416,"intl_designator":"2025-129E","name":"STARLINK-34514","alt_names":[],"object_type":"PAYLOAD","status":"ACTIVE","operator":null,"country":"US","launch_date":"2025-06-17","launch_site_code":"AFWTR","launch_vehicle":null,"mission":null,"orbit_class":"UNKNOWN","rcs_meters":null,"size_class":null,"mass_kg":null,"dimensions":null,"purposes":["comms"],"wikipedia_slug":null,"has_3d_model":false,"image_url":null,"decayed_at":null,"tle_current":{"epoch":"2026-05-25T05:08:22.642080Z","epoch_age_seconds":52589,"freshness":"FRESH","line1":"1 64416U 25129E   26145.21415095  .00003382  00000+0  29102-3 0  9997","line2":"2 64416  70.0005 241.3631 0003484 269.3427  90.7333 14.98338096 52752","mean_motion":14.98338096,"eccentricity":0.0003484,"inclination_deg":70.0005,"raan_deg":241.3631,"arg_perigee_deg":269.3427,"mean_anomaly_deg":90.7333,"bstar":0.00029102,"rev_number":5275,"period_min":96.106479828836,"perigee_km":569.60941636436,"apogee_km":574.45229332562,"semimajor_km":6950.167854845,"source":"CELESTRAK","updated_at":"2026-05-25T13:38:20.417616Z"}}}